Time,TemperatureF,DewpointF,PressureIn,WindDirection,WindDirectionDegrees,WindSpeedMPH,WindSpeedGustMPH,Humidity,HourlyPrecipIn,Conditions,Clouds,dailyrainin,SolarRadiationWatts/m^2,SoftwareType,DateUTC
2015-08-03 00:03:00,81.8,82.0,29.31,WSW,245,5.6,6.8,0,0.00,,,0.00,2,TxWx,2015-08-03 05:03:00,
2015-08-03 00:08:00,81.6,82.0,29.31,SSW,200,4.3,8.0,0,0.00,,,0.00,3,TxWx,2015-08-03 05:08:00,
2015-08-03 00:14:00,81.4,81.0,29.31,SSW,200,6.2,6.2,0,0.00,,,0.00,2,TxWx,2015-08-03 05:14:00,
2015-08-03 00:19:00,81.2,81.0,29.31,SW,222,3.1,4.3,0,0.00,,,0.00,2,TxWx,2015-08-03 05:19:00,
2015-08-03 00:24:00,81.0,81.0,29.31,South,177,1.2,3.1,0,0.00,,,0.00,2,TxWx,2015-08-03 05:24:00,
2015-08-03 00:29:00,80.8,81.0,29.32,SSW,200,3.1,3.7,0,0.00,,,0.00,2,TxWx,2015-08-03 05:29:00,
2015-08-03 00:35:00,80.5,81.0,29.32,SSW,200,3.1,3.7,0,0.00,,,0.00,2,TxWx,2015-08-03 05:35:00,
2015-08-03 00:40:00,80.3,80.0,29.32,WSW,245,3.1,5.0,0,0.00,,,0.00,2,TxWx,2015-08-03 05:40:00,
2015-08-03 00:45:00,80.1,80.0,29.32,South,177,5.0,8.7,0,0.00,,,0.00,2,TxWx,2015-08-03 05:45:00,
2015-08-03 00:51:00,79.9,80.0,29.32,SSW,200,5.6,6.8,0,0.00,,,0.00,2,TxWx,2015-08-03 05:51:00,
2015-08-03 00:56:00,79.7,80.0,29.32,SSW,200,5.0,7.4,0,0.00,,,0.00,2,TxWx,2015-08-03 05:56:00,
2015-08-03 01:01:00,79.7,80.0,29.32,South,177,6.2,10.5,0,0.00,,,0.00,2,TxWx,2015-08-03 06:01:00,
2015-08-03 01:06:00,79.5,80.0,29.32,SSW,200,8.0,8.7,0,0.00,,,0.00,2,TxWx,2015-08-03 06:06:00,
2015-08-03 01:12:00,79.4,79.0,29.32,SSW,200,3.1,7.4,0,0.00,,,0.00,3,TxWx,2015-08-03 06:12:00,
2015-08-03 01:17:00,79.3,79.0,29.32,SSW,200,6.8,8.0,0,0.00,,,0.00,2,TxWx,2015-08-03 06:17:00,
2015-08-03 01:22:00,79.1,79.0,29.32,SW,222,3.7,5.6,0,0.00,,,0.00,3,TxWx,2015-08-03 06:22:00,
2015-08-03 01:27:00,79.0,79.0,29.32,SW,222,4.3,5.6,0,0.00,,,0.00,2,TxWx,2015-08-03 06:27:00,
2015-08-03 01:33:00,78.8,79.0,29.33,SW,222,5.6,7.4,0,0.00,,,0.00,2,TxWx,2015-08-03 06:33:00,
2015-08-03 01:38:00,78.6,79.0,29.32,WSW,245,1.9,4.3,0,0.00,,,0.00,2,TxWx,2015-08-03 06:38:00,
2015-08-03 01:43:00,78.3,78.0,29.33,SSW,200,3.7,5.0,0,0.00,,,0.00,2,TxWx,2015-08-03 06:43:00,
2015-08-03 01:48:00,78.1,78.0,29.32,SSW,200,5.0,5.6,0,0.00,,,0.00,2,TxWx,2015-08-03 06:48:00,
2015-08-03 01:54:00,78.2,78.0,29.33,SSW,200,4.3,6.2,0,0.00,,,0.00,2,TxWx,2015-08-03 06:54:00,
2015-08-03 01:59:00,78.0,78.0,29.33,SSW,200,5.6,5.6,0,0.00,,,0.00,2,TxWx,2015-08-03 06:59:00,
2015-08-03 02:04:00,77.8,78.0,29.32,SSW,200,6.2,7.4,0,0.00,,,0.00,2,TxWx,2015-08-03 07:04:00,
2015-08-03 02:10:00,78.0,78.0,29.32,SSW,200,11.1,12.4,0,0.00,,,0.00,2,TxWx,2015-08-03 07:10:00,
2015-08-03 02:15:00,78.1,78.0,29.32,SSW,200,8.7,8.7,0,0.00,,,0.00,3,TxWx,2015-08-03 07:15:00,
2015-08-03 02:20:00,78.2,78.0,29.32,SSW,200,7.4,8.7,0,0.00,,,0.00,2,TxWx,2015-08-03 07:20:00,
2015-08-03 02:25:00,78.0,78.0,29.32,SSW,200,7.4,8.7,0,0.00,,,0.00,2,TxWx,2015-08-03 07:25:00,
2015-08-03 02:31:00,78.1,78.0,29.32,SSW,200,9.9,10.5,0,0.00,,,0.00,2,TxWx,2015-08-03 07:31:00,
2015-08-03 02:36:00,77.8,78.0,29.32,SSW,200,6.2,8.0,0,0.00,,,0.00,2,TxWx,2015-08-03 07:36:00,
2015-08-03 02:41:00,77.6,78.0,29.32,SSW,200,9.3,11.1,0,0.00,,,0.00,3,TxWx,2015-08-03 07:41:00,
2015-08-03 02:46:00,77.6,78.0,29.32,SSW,200,7.4,8.7,0,0.00,,,0.00,2,TxWx,2015-08-03 07:46:00,
2015-08-03 02:52:00,77.5,78.0,29.32,South,177,7.4,9.3,0,0.00,,,0.00,2,TxWx,2015-08-03 07:52:00,
2015-08-03 02:57:00,77.5,78.0,29.32,SSW,200,6.8,9.9,0,0.00,,,0.00,2,TxWx,2015-08-03 07:57:00,
2015-08-03 03:02:00,77.3,77.0,29.32,SSW,200,5.6,9.9,0,0.00,,,0.00,2,TxWx,2015-08-03 08:02:00,
2015-08-03 03:07:00,77.2,77.0,29.32,South,177,8.0,9.3,0,0.00,,,0.00,2,TxWx,2015-08-03 08:07:00,
2015-08-03 03:13:00,77.0,77.0,29.32,SSW,200,8.0,8.0,0,0.00,,,0.00,2,TxWx,2015-08-03 08:13:00,
2015-08-03 03:18:00,76.8,77.0,29.32,SSE,155,6.8,6.8,0,0.00,,,0.00,2,TxWx,2015-08-03 08:18:00,
2015-08-03 03:23:00,76.4,76.0,29.32,South,177,3.7,5.6,0,0.00,,,0.00,3,TxWx,2015-08-03 08:23:00,
2015-08-03 03:29:00,76.0,76.0,29.32,SSW,200,5.0,5.0,0,0.00,,,0.00,2,TxWx,2015-08-03 08:29:00,
2015-08-03 03:34:00,75.8,76.0,29.32,South,177,4.3,5.0,0,0.00,,,0.00,2,TxWx,2015-08-03 08:34:00,
2015-08-03 03:39:00,75.7,76.0,29.32,SSW,200,3.1,4.3,0,0.00,,,0.00,2,TxWx,2015-08-03 08:39:00,
2015-08-03 03:44:00,75.6,76.0,29.32,SSE,155,5.0,5.6,0,0.00,,,0.00,2,TxWx,2015-08-03 08:44:00,
2015-08-03 03:50:00,75.3,75.0,29.32,SSE,155,3.1,4.3,0,0.00,,,0.00,2,TxWx,2015-08-03 08:50:00,
2015-08-03 03:55:00,75.0,75.0,29.32,South,177,4.3,5.6,0,0.00,,,0.00,2,TxWx,2015-08-03 08:55:00,
2015-08-03 04:00:00,74.7,75.0,29.32,SSE,155,3.1,4.3,0,0.00,,,0.00,2,TxWx,2015-08-03 09:00:00,
2015-08-03 04:05:00,74.5,75.0,29.32,South,177,0.6,2.5,0,0.00,,,0.00,3,TxWx,2015-08-03 09:05:00,
2015-08-03 04:11:00,74.2,74.0,29.32,South,177,0.0,0.0,0,0.00,,,0.00,2,TxWx,2015-08-03 09:11:00,
2015-08-03 04:16:00,74.1,74.0,29.33,South,177,3.1,3.7,0,0.00,,,0.00,2,TxWx,2015-08-03 09:16:00,
2015-08-03 04:21:00,74.0,74.0,29.33,South,177,0.0,0.0,0,0.00,,,0.00,3,TxWx,2015-08-03 09:21:00,
2015-08-03 04:26:00,74.0,74.0,29.33,SSE,155,0.0,0.0,0,0.00,,,0.00,2,TxWx,2015-08-03 09:26:00,
2015-08-03 04:32:00,73.9,74.0,29.33,SSE,155,0.0,0.0,0,0.00,,,0.00,2,TxWx,2015-08-03 09:32:00,
2015-08-03 04:37:00,73.9,74.0,29.33,SE,132,0.0,0.0,0,0.00,,,0.00,2,TxWx,2015-08-03 09:37:00,
2015-08-03 04:42:00,73.9,74.0,29.33,South,177,0.0,0.0,0,0.00,,,0.00,3,TxWx,2015-08-03 09:42:00,
2015-08-03 04:47:00,73.9,74.0,29.33,South,177,0.0,0.0,0,0.00,,,0.00,2,TxWx,2015-08-03 09:47:00,
2015-08-03 04:53:00,73.8,74.0,29.33,SW,222,0.0,0.0,0,0.00,,,0.00,3,TxWx,2015-08-03 09:53:00,
2015-08-03 04:58:00,73.6,74.0,29.33,West,267,0.0,0.0,0,0.00,,,0.00,3,TxWx,2015-08-03 09:58:00,
2015-08-03 05:03:00,73.3,73.0,29.33,SSW,200,0.0,0.0,0,0.00,,,0.00,2,TxWx,2015-08-03 10:03:00,
2015-08-03 05:09:00,73.1,73.0,29.33,South,177,1.2,1.2,0,0.00,,,0.00,2,TxWx,2015-08-03 10:09:00,
2015-08-03 05:14:00,73.0,73.0,29.33,SSW,200,0.0,0.0,0,0.00,,,0.00,2,TxWx,2015-08-03 10:14:00,
2015-08-03 05:19:00,72.9,73.0,29.33,SSW,200,0.0,0.0,0,0.00,,,0.00,2,TxWx,2015-08-03 10:19:00,
2015-08-03 05:24:00,72.7,73.0,29.34,SW,222,0.0,0.0,0,0.00,,,0.00,2,TxWx,2015-08-03 10:24:00,
2015-08-03 05:30:00,72.6,73.0,29.33,SSE,155,0.0,0.0,0,0.00,,,0.00,2,TxWx,2015-08-03 10:30:00,
2015-08-03 05:35:00,72.4,72.0,29.34,SSW,200,0.0,0.0,0,0.00,,,0.00,3,TxWx,2015-08-03 10:35:00,
2015-08-03 05:40:00,72.3,72.0,29.33,SSE,155,0.0,0.0,0,0.00,,,0.00,2,TxWx,2015-08-03 10:40:00,
2015-08-03 05:45:00,72.3,72.0,29.34,SSE,155,0.0,0.0,0,0.00,,,0.00,2,TxWx,2015-08-03 10:45:00,
2015-08-03 05:51:00,72.2,72.0,29.34,SSE,155,0.0,0.0,0,0.00,,,0.00,2,TxWx,2015-08-03 10:51:00,
2015-08-03 05:56:00,72.1,72.0,29.34,South,177,1.2,3.7,0,0.00,,,0.00,2,TxWx,2015-08-03 10:56:00,
2015-08-03 06:01:00,72.0,72.0,29.34,SSW,200,1.9,2.5,0,0.00,,,0.00,3,TxWx,2015-08-03 11:01:00,
2015-08-03 06:06:00,71.8,72.0,29.34,South,177,0.0,0.0,0,0.00,,,0.00,3,TxWx,2015-08-03 11:06:00,
2015-08-03 06:12:00,71.6,72.0,29.34,SSE,155,0.0,0.0,0,0.00,,,0.00,3,TxWx,2015-08-03 11:12:00,
2015-08-03 06:17:00,71.5,71.0,29.34,SSW,200,0.0,0.0,0,0.00,,,0.00,3,TxWx,2015-08-03 11:17:00,
2015-08-03 06:22:00,71.4,71.0,29.34,South,177,2.5,3.7,0,0.00,,,0.00,3,TxWx,2015-08-03 11:22:00,
2015-08-03 06:27:00,71.5,71.0,29.34,SW,222,0.0,0.6,0,0.00,,,0.00,4,TxWx,2015-08-03 11:27:00,
2015-08-03 06:33:00,71.5,71.0,29.34,SSW,200,0.0,0.0,0,0.00,,,0.00,5,TxWx,2015-08-03 11:33:00,
2015-08-03 06:38:00,71.3,71.0,29.34,SSE,155,0.0,0.0,0,0.00,,,0.00,8,TxWx,2015-08-03 11:38:00,
2015-08-03 06:43:00,71.4,71.0,29.35,SSE,155,0.0,0.0,0,0.00,,,0.00,17,TxWx,2015-08-03 11:43:00,
2015-08-03 06:48:00,71.5,71.0,29.35,SSE,155,0.0,0.0,0,0.00,,,0.00,23,TxWx,2015-08-03 11:48:00,
2015-08-03 06:54:00,71.5,72.0,29.35,NNW,335,1.9,2.5,0,0.00,,,0.00,54,TxWx,2015-08-03 11:54:00,
2015-08-03 06:59:00,71.6,72.0,29.35,NNE,20,5.6,5.6,0,0.00,,,0.00,70,TxWx,2015-08-03 11:59:00,